CW1631 Weather Reports


Display with metric or nautical units.
time (UTC)temp
F
wind
direction
speed
MPH
gust
MPH
rain 1hr
in
rain 24hr
in
rain mn
in
humidity
%
barometer
mb
20260509223935 55 206 5.0 7.0 0.00 0.31 0.31 86 1007.3
20260509223431 55 197 6.0 7.0 0.00 0.31 0.31 87 1007.2
20260509222929 55 200 4.0 6.0 0.00 0.31 0.31 87 1006.9
20260509222424 55 198 4.0 5.0 0.00 0.31 0.31 87 1006.8
20260509221920 55 202 4.0 5.0 0.00 0.31 0.31 86 1007.0
20260509221417 55 186 8.0 9.0 0.00 0.31 0.31 86 1006.9
20260509220913 55 206 6.0 8.0 0.00 0.31 0.31 86 1007.0
20260509220409 55 207 5.0 6.0 0.00 0.31 0.31 87 1006.9
20260509215904 55 216 5.0 6.0 0.00 0.31 0.31 87 1007.0
20260509215400 55 211 6.0 9.0 0.00 0.31 0.31 87 1006.7
20260509214858 55 191 7.0 8.0 0.00 0.31 0.31 87 1007.1
20260509214355 55 212 6.0 6.0 0.00 0.31 0.31 88 1007.2
20260509213852 55 197 7.0 8.0 0.00 0.31 0.31 89 1007.1
20260509213347 54 217 5.0 6.0 0.00 0.31 0.31 89 1007.1
20260509212846 54 214 5.0 8.0 0.00 0.31 0.31 90 1007.2
20260509212343 54 212 5.0 6.0 0.00 0.31 0.31 90 1007.1
20260509211838 54 223 10.0 13.0 0.00 0.31 0.31 90 1007.3
20260509211334 54 189 6.0 7.0 0.00 0.31 0.31 90 1007.3
20260509210831 54 209 6.0 7.0 0.00 0.31 0.31 90 1007.5
20260509210329 54 206 8.0 8.0 0.00 0.31 0.31 91 1007.6
20260509205828 54 233 6.0 7.0 0.00 0.31 0.31 91 1007.6
20260509205323 53 224 5.0 6.0 0.00 0.31 0.31 92 1007.5
20260509204820 53 180 5.0 5.0 0.00 0.31 0.31 92 1007.6
20260509204316 53 198 4.0 5.0 0.00 0.31 0.31 92 1007.7
20260509203812 53 215 5.0 6.0 0.00 0.31 0.31 92 1007.6
20260509203310 53 212 6.0 7.0 0.00 0.31 0.31 92 1007.7
20260509202806 53 180 8.0 10.0 0.00 0.31 0.31 92 1007.7
20260509202306 53 212 6.0 7.0 0.00 0.31 0.31 92 1007.9
20260509201801 53 200 6.0 8.0 0.00 0.31 0.31 92 1007.8
20260509201258 53 188 6.0 7.0 0.00 0.31 0.31 92 1008.0
20260509200755 53 176 8.0 9.0 0.00 0.31 0.31 92 1007.9
20260509200250 53 195 6.0 8.0 0.00 0.31 0.31 92 1008.0
20260509195746 53 193 7.0 8.0 0.00 0.31 0.31 92 1008.1
20260509195242 53 212 4.0 6.0 0.00 0.31 0.31 92 1008.0
20260509194736 53 215 8.0 8.0 0.00 0.31 0.31 93 1008.0
20260509194233 53 215 5.0 6.0 0.00 0.31 0.31 93 1008.2
20260509193730 53 215 4.0 5.0 0.00 0.31 0.31 92 1008.2
20260509193229 53 202 6.0 6.0 0.00 0.31 0.31 92 1008.2
20260509192726 52 223 7.0 7.0 0.05 0.31 0.31 92 1008.3
20260509192221 52 202 5.0 6.0 0.12 0.31 0.31 92 1008.4
20260509191716 53 211 4.0 5.0 0.07 0.30 0.30 91 1008.4
20260509191213 53 239 8.0 10.0 0.00 0.29 0.29 90 1008.6
20260509190709 53 214 5.0 6.0 0.00 0.29 0.29 90 1008.3
20260509190207 53 224 5.0 6.0 0.00 0.29 0.29 89 1008.5
20260509185704 53 209 5.0 6.0 0.00 0.29 0.29 89 1008.5
20260509185200 53 220 6.0 7.0 0.00 0.29 0.29 89 1008.4
20260509184658 53 200 5.0 6.0 0.00 0.29 0.29 89 1008.5
20260509184155 53 201 6.0 7.0 0.00 0.29 0.29 89 1008.4
20260509183651 53 211 4.0 5.0 0.00 0.29 0.29 89 1008.5
20260509183146 53 179 6.0 7.0 0.00 0.29 0.29 89 1008.4
20260509182642 53 201 7.0 8.0 0.00 0.29 0.29 89 1008.3
20260509182139 53 210 6.0 7.0 0.00 0.29 0.29 89 1008.8
20260509181637 53 209 9.0 10.0 0.00 0.29 0.29 89 1008.4
20260509181135 53 202 8.0 9.0 0.00 0.29 0.29 89 1008.4
20260509180631 52 217 5.0 6.0 0.00 0.29 0.29 89 1008.4
20260509180128 52 211 7.0 9.0 0.00 0.29 0.29 90 1008.4
20260509175624 52 245 7.0 9.0 0.00 0.29 0.29 91 1008.5
20260509175121 52 219 7.0 7.0 0.00 0.29 0.29 91 1008.4
20260509174616 52 198 9.0 10.0 0.00 0.29 0.29 92 1008.4
20260509174112 51 202 6.0 7.0 0.05 0.29 0.29 92 1008.3
20260509173607 51 220 4.0 5.0 0.05 0.29 0.29 92 1008.4
20260509173103 51 240 2.0 3.0 0.05 0.29 0.29 92 1008.5
20260509172601 52 268 0.0 1.0 0.00 0.28 0.28 91 1008.2
20260509172056 52 250 3.0 5.0 0.00 0.28 0.28 90 1008.3
20260509171552 52 212 5.0 6.0 0.00 0.28 0.28 91 1008.3
20260509171049 52 196 3.0 3.0 0.00 0.28 0.28 91 1008.4
20260509170545 52 182 4.0 5.0 0.00 0.28 0.28 90 1008.5
20260509170041 52 219 4.0 5.0 0.00 0.28 0.28 90 1008.4
20260509165540 52 218 7.0 8.0 0.00 0.28 0.28 90 1008.4
20260509165035 52 224 5.0 7.0 0.00 0.28 0.28 90 1008.6
20260509164532 52 233 2.0 2.0 0.00 0.28 0.28 89 1008.3
20260509164027 53 241 4.0 6.0 0.00 0.28 0.28 90 1008.4
20260509163525 53 212 4.0 5.0 0.00 0.28 0.28 90 1008.4
20260509163020 53 200 4.0 5.0 0.00 0.28 0.28 90 1008.3
20260509162518 52 223 6.0 8.0 0.00 0.28 0.28 90 1008.5
20260509162014 52 231 5.0 5.0 0.00 0.28 0.28 90 1008.8
20260509161510 52 225 3.0 5.0 0.00 0.28 0.28 89 1008.8
20260509161000 52 209 6.0 7.0 0.00 0.28 0.28 89 1008.9
20260509160456 52 190 3.0 3.0 0.00 0.28 0.28 89 1008.7
20260509155956 52 177 6.0 7.0 0.00 0.28 0.28 89 1008.8
20260509155453 52 181 7.0 9.0 0.00 0.28 0.28 89 1009.2
20260509154949 52 216 7.0 10.0 0.00 0.28 0.28 90 1008.8
20260509154445 52 239 4.0 5.0 0.00 0.28 0.28 90 1009.2
20260509153943 52 176 3.0 3.0 0.00 0.28 0.28 91 1008.9
20260509153440 51 179 7.0 7.0 0.07 0.28 0.28 93 1008.8
20260509152937 51 201 2.0 2.0 0.07 0.28 0.28 94 1009.2
20260509152432 51 236 0.0 1.0 0.00 0.27 0.27 95 1009.4
20260509151930 51 249 1.0 1.0 0.05 0.27 0.27 96 1009.4
20260509151426 50 282 0.0 0.0 0.05 0.27 0.27 96 1009.4
20260509150924 50 243 2.0 2.0 0.07 0.26 0.26 96 1009.6
20260509150421 50 313 1.0 1.0 0.07 0.26 0.26 97 1009.7
20260509145919 50 263 0.0 0.0 0.05 0.25 0.25 96 1009.8
20260509145414 50 271 0.0 1.0 0.05 0.25 0.25 96 1009.7
20260509144909 49 268 0.0 0.0 0.07 0.24 0.24 96 1009.9
20260509144406 49 258 0.0 0.0 0.07 0.24 0.24 96 1009.7
20260509143904 49 270 0.0 0.0 0.00 0.23 0.23 96 1009.7
20260509143401 48 320 1.0 1.0 0.07 0.23 0.23 96 1009.7
20260509142857 48 289 1.0 2.0 0.07 0.23 0.23 96 1009.5
20260509142354 48 304 2.0 2.0 0.05 0.22 0.22 96 1009.7
20260509141849 48 298 1.0 1.0 0.05 0.22 0.22 96 1009.8
20260509141347 48 262 1.0 1.0 0.07 0.21 0.21 97 1009.9
20260509140843 47 307 0.0 0.0 0.07 0.21 0.21 96 1009.7
20260509140340 47 115 2.0 2.0 0.05 0.20 0.20 96 1009.8
20260509135838 47 220 1.0 1.0 0.05 0.20 0.20 96 1010.1
20260509135335 47 273 0.0 0.0 0.05 0.20 0.20 96 1009.8
20260509134832 47 304 2.0 2.0 0.00 0.19 0.19 96 1009.7
20260509134329 46 282 0.0 0.0 0.07 0.19 0.19 96 1009.9
20260509133826 46 277 0.0 0.0 0.07 0.19 0.19 96 1009.9
20260509133323 46 301 0.0 1.0 0.00 0.18 0.18 96 1010.0
20260509132822 46 349 0.0 0.0 0.00 0.18 0.18 96 1009.9
20260509132320 45 286 0.0 0.0 0.05 0.18 0.18 96 1010.0
20260509131816 45 52 0.0 1.0 0.05 0.18 0.18 96 1010.0
20260509131313 44 267 0.0 1.0 0.07 0.17 0.17 96 1010.0
20260509130810 44 302 0.0 0.0 0.07 0.17 0.17 96 1010.0
20260509130305 44 212 2.0 2.0 0.00 0.16 0.16 96 1010.2
20260509125802 44 248 0.0 1.0 0.05 0.16 0.16 95 1010.2
20260509125259 44 292 0.0 0.0 0.05 0.16 0.16 95 1010.2
20260509124755 44 304 1.0 1.0 0.07 0.15 0.15 95 1010.2
20260509124252 43 260 0.0 0.0 0.12 0.15 0.15 95 1010.2
20260509123750 43 253 0.0 0.0 0.05 0.14 0.14 95 1010.3
20260509123247 43 267 0.0 0.0 0.00 0.13 0.13 95 1010.2
20260509122742 43 249 0.0 0.0 0.07 0.13 0.13 95 1010.1
20260509122240 43 253 0.0 0.0 0.07 0.13 0.13 95 1010.2
20260509121737 43 280 0.0 0.0 0.07 0.12 0.12 95 1010.3
20260509121234 42 284 0.0 0.0 0.07 0.12 0.12 95 1010.4
20260509120732 42 288 0.0 0.0 0.05 0.11 0.11 95 1010.5
20260509120229 42 295 0.0 0.0 0.05 0.11 0.11 95 1010.4
20260509115727 42 348 1.0 1.0 0.07 0.10 0.10 95 1010.3
20260509115224 42 302 0.0 0.0 0.12 0.10 0.10 94 1010.4
20260509114722 42 91 1.0 1.0 0.05 0.09 0.09 94 1010.3
20260509114221 42 90 1.0 2.0 0.12 0.09 0.09 94 1010.5
20260509113719 42 73 1.0 1.0 0.12 0.08 0.08 94 1010.4
20260509113216 41 224 0.0 1.0 0.12 0.07 0.07 94 1010.3
20260509112713 41 315 0.0 0.0 0.12 0.06 0.06 94 1010.4
20260509112210 41 332 1.0 1.0 0.05 0.05 0.05 94 1010.3
20260509111706 41 312 0.0 0.0 0.12 0.05 0.05 94 1010.3
20260509111203 41 293 0.0 0.0 0.07 0.04 0.04 94 1010.3
20260509110701 41 284 0.0 0.0 0.05 0.03 0.03 94 1010.2
20260509110157 41 273 0.0 0.0 0.05 0.03 0.03 94 1010.4
20260509105655 41 279 0.0 0.0 0.00 0.02 0.02 94 1010.4
20260509105153 41 269 0.0 0.0 0.00 0.02 0.02 94 1010.5
20260509104650 41 260 0.0 0.0 0.00 0.02 0.02 94 1010.4
20260509104147 41 260 0.0 0.0 0.07 0.02 0.02 94 1010.4
20260509103645 41 258 0.0 0.0 0.07 0.02 0.02 93 1010.5
20260509103142 41 278 0.0 0.0 0.00 0.01 0.01 93 1010.4
20260509102640 41 278 1.0 1.0 0.00 0.01 0.01 93 1010.3
20260509102136 41 279 1.0 1.0 0.00 0.01 0.01 93 1010.3
20260509101633 40 296 0.0 0.0 0.00 0.01 0.01 93 1010.1
20260509101130 40 95 1.0 1.0 0.00 0.01 0.01 93 1010.0
20260509100627 40 178 1.0 1.0 0.00 0.01 0.01 93 1010.4
20260509100124 40 211 1.0 1.0 0.00 0.01 0.01 93 1010.3
20260509095621 40 243 0.0 0.0 0.00 0.01 0.01 93 1010.3
20260509095118 40 297 0.0 0.0 0.00 0.01 0.01 93 1010.3
20260509094614 40 320 0.0 0.0 0.00 0.01 0.01 93 1009.9
20260509094111 40 251 1.0 1.0 0.00 0.01 0.01 92 1010.0
20260509093610 40 283 0.0 0.0 0.00 0.01 0.01 92 1010.1
20260509093106 40 288 0.0 0.0 0.00 0.01 0.01 92 1010.4
20260509092604 40 331 1.0 1.0 0.00 0.01 0.01 92 1010.2
20260509092103 40 301 0.0 0.0 0.00 0.01 0.01 92 1010.3
20260509091600 40 297 0.0 0.0 0.00 0.01 0.01 92 1010.2
20260509091056 40 336 1.0 1.0 0.00 0.01 0.01 92 1010.1
20260509090554 40 3 1.0 1.0 0.00 0.01 0.01 91 1010.4
20260509090052 40 42 2.0 2.0 0.00 0.01 0.01 91 1010.3
20260509085548 40 334 0.0 1.0 0.00 0.01 0.01 91 1010.7
20260509085044 40 327 0.0 0.0 0.00 0.01 0.01 91 1010.6
20260509084542 40 337 1.0 1.0 0.05 0.01 0.01 91 1010.5
20260509084039 40 35 2.0 2.0 0.05 0.01 0.01 91 1010.4
20260509083536 40 349 1.0 1.0 0.00 0.00 0.00 91 1010.6
20260509083032 40 306 1.0 1.0 0.00 0.00 0.00 91 1010.8
20260509082530 40 287 0.0 0.0 0.00 0.00 0.00 91 1010.7
20260509082027 41 276 0.0 1.0 0.00 0.00 0.00 91 1010.9
20260509081524 41 279 0.0 0.0 0.00 0.00 0.00 91 1010.9
20260509081021 40 287 0.0 0.0 0.00 0.00 0.00 91 1010.7
20260509080519 40 282 0.0 0.0 0.00 0.00 0.00 91 1011.1
20260509080017 40 7 1.0 1.0 0.00 0.00 0.00 91 1010.8
20260509075514 40 58 1.0 2.0 0.00 0.00 0.00 91 1010.9
20260509075012 40 294 0.0 0.0 0.00 0.00 0.00 91 1010.8
20260509074509 40 303 0.0 0.0 0.00 0.00 0.00 90 1011.1
20260509074005 40 1 1.0 1.0 0.00 0.00 0.00 90 1010.8
20260509073501 40 328 0.0 1.0 0.00 0.00 0.00 90 1010.9
20260509072958 40 10 1.0 1.0 0.00 0.00 0.00 90 1010.8
20260509072455 40 71 1.0 2.0 0.00 0.00 0.00 90 1011.0
20260509071952 40 331 0.0 1.0 0.00 0.00 0.00 90 1010.6
20260509071448 40 294 0.0 0.0 0.00 0.00 0.00 90 1010.8
20260509070946 40 294 0.0 0.0 0.00 0.00 0.00 89 1010.9
20260509070443 40 343 0.0 0.0 0.00 0.00 0.00 89 1010.4
20260509065938 40 67 2.0 2.0 0.00 0.00 0.00 88 1010.6
20260509065434 40 314 0.0 1.0 0.00 0.00 0.00 88 1010.9
20260509064931 40 276 0.0 0.0 0.00 0.00 0.00 88 1010.7
20260509064429 40 276 0.0 0.0 0.00 0.00 0.00 88 1011.0
20260509063926 40 276 0.0 0.0 0.00 0.00 0.00 88 1010.9
20260509063422 40 276 0.0 0.0 0.00 0.00 0.00 87 1010.9
20260509062919 40 287 0.0 1.0 0.00 0.00 0.00 86 1011.0
20260509062416 40 294 0.0 1.0 0.00 0.00 0.00 86 1011.0
20260509061914 40 293 0.0 0.0 0.00 0.00 0.00 86 1011.2
20260509061412 40 293 0.0 0.0 0.00 0.00 0.00 87 1011.2
20260509060908 40 286 0.0 0.0 0.00 0.00 0.00 87 1011.3
20260509060405 40 319 1.0 1.0 0.00 0.00 0.00 87 1011.5
20260509055900 40 337 1.0 1.0 0.00 0.00 0.00 87 1011.4
20260509055355 40 308 0.0 0.0 0.00 0.00 0.00 87 1011.4
20260509054853 40 319 0.0 0.0 0.00 0.00 0.00 87 1011.4
20260509054350 40 341 1.0 1.0 0.00 0.00 0.00 87 1011.5
20260509053848 40 354 0.0 0.0 0.00 0.00 0.00 87 1011.6
20260509053345 40 251 0.0 0.0 0.00 0.00 0.00 87 1011.5
20260509052843 40 244 0.0 0.0 0.00 0.00 0.00 87 1011.6
20260509052340 40 307 0.0 1.0 0.00 0.00 0.00 88 1011.5
20260509051838 40 265 1.0 1.0 0.00 0.00 0.00 88 1011.5
20260509051336 40 57 4.0 5.0 0.00 0.00 0.00 89 1011.4
20260509050832 39 15 1.0 1.0 0.00 0.00 0.00 89 1011.5
20260509050329 39 314 0.0 0.0 0.00 0.00 0.00 89 1011.5
20260509045826 39 296 0.0 0.0 0.00 0.00 0.00 89 1011.9
20260509045323 39 296 0.0 0.0 0.00 0.00 0.00 90 1011.9
20260509044820 39 296 0.0 0.0 0.00 0.00 0.00 90 1011.6
20260509044318 39 295 0.0 0.0 0.00 0.00 0.00 90 1011.8
20260509043814 39 295 0.0 0.0 0.00 0.00 0.00 90 1011.5
20260509043310 39 352 1.0 1.0 0.00 0.00 0.00 90 1011.7
20260509042806 39 348 1.0 1.0 0.00 0.00 0.00 90 1011.8
20260509042306 39 304 1.0 1.0 0.00 0.00 0.00 90 1011.9
20260509041759 39 292 0.0 0.0 0.00 0.00 0.00 90 1012.0
20260509041256 39 252 0.0 0.0 0.00 0.00 0.00 91 1011.8
20260509040755 39 206 1.0 1.0 0.00 0.00 0.00 91 1011.8
20260509040251 39 174 1.0 1.0 0.00 0.00 0.00 91 1011.8
20260509035749 39 234 0.0 0.0 0.00 0.05 0.05 91 1011.9
20260509035245 39 303 1.0 1.0 0.00 0.05 0.05 91 1011.8
20260509034742 39 286 1.0 1.0 0.00 0.05 0.05 91 1011.8
20260509034240 39 348 1.0 1.0 0.00 0.05 0.05 91 1011.6
20260509033736 39 296 0.0 0.0 0.00 0.05 0.05 91 1011.6
20260509033233 39 315 0.0 0.0 0.00 0.05 0.05 90 1011.9
20260509032731 40 315 0.0 1.0 0.00 0.05 0.05 90 1011.8
20260509032227 40 315 0.0 1.0 0.00 0.05 0.05 90 1011.7
20260509031725 40 303 0.0 0.0 0.00 0.05 0.05 89 1011.8
20260509031222 40 287 0.0 0.0 0.00 0.05 0.05 89 1011.9
20260509030720 40 287 0.0 0.0 0.00 0.05 0.05 88 1011.8
20260509030217 41 316 1.0 1.0 0.00 0.05 0.05 88 1011.7
20260509025714 41 314 1.0 1.0 0.00 0.05 0.05 87 1011.6
20260509025210 41 295 1.0 1.0 0.00 0.05 0.05 87 1011.9
20260509024705 41 247 0.0 0.0 0.00 0.05 0.05 87 1012.0
20260509024201 41 247 0.0 1.0 0.00 0.05 0.05 87 1011.7
20260509023659 42 287 0.0 0.0 0.00 0.05 0.05 87 1011.8
20260509023156 42 322 1.0 1.0 0.00 0.05 0.05 86 1011.6
20260509022652 43 312 1.0 1.0 0.00 0.05 0.05 85 1011.6
20260509022150 43 312 1.0 1.0 0.00 0.05 0.05 85 1011.8
20260509021646 43 322 1.0 1.0 0.00 0.05 0.05 84 1012.0
20260509021144 44 303 1.0 1.0 0.00 0.05 0.05 83 1012.0
20260509020642 44 84 2.0 2.0 0.00 0.05 0.05 83 1011.9
20260509020139 44 308 0.0 1.0 0.00 0.05 0.05 82 1012.1
20260509015637 44 297 0.0 0.0 0.00 0.05 0.05 81 1011.9
20260509015135 44 311 0.0 0.0 0.00 0.05 0.05 81 1011.7
20260509014631 45 310 0.0 0.0 0.00 0.05 0.05 79 1011.9
20260509014127 45 313 1.0 1.0 0.00 0.05 0.05 79 1011.5
20260509013625 45 287 0.0 0.0 0.00 0.05 0.05 78 1011.8
20260509013120 45 308 1.0 1.0 0.00 0.05 0.05 77 1011.5
20260509012617 46 308 1.0 2.0 0.00 0.05 0.05 76 1011.6
20260509012114 46 282 0.0 0.0 0.00 0.05 0.05 75 1011.3
20260509011612 46 281 0.0 0.0 0.00 0.05 0.05 73 1011.6
20260509011109 46 282 0.0 0.0 0.00 0.05 0.05 73 1011.2
20260509010607 47 299 1.0 1.0 0.00 0.05 0.05 73 1011.1
20260509005601 47 295 0.0 0.0 0.00 0.05 0.05 71 1010.9
20260509005056 47 297 0.0 0.0 0.00 0.05 0.05 71 1011.0
20260509004553 48 297 0.0 0.0 0.00 0.05 0.05 70 1011.0
20260509004050 48 297 0.0 0.0 0.00 0.05 0.05 68 1010.9
20260509003548 48 316 1.0 2.0 0.00 0.05 0.05 67 1010.9
20260509003045 49 308 1.0 1.0 0.00 0.05 0.05 67 1010.8
20260509002543 49 279 0.0 0.0 0.00 0.05 0.05 67 1010.7
20260509002040 50 277 0.0 0.0 0.00 0.05 0.05 65 1010.8
20260509001537 50 298 1.0 1.0 0.00 0.05 0.05 60 1010.4
20260509001033 51 297 0.0 0.0 0.00 0.05 0.05 56 1010.5
20260509000532 51 320 0.0 0.0 0.00 0.05 0.05 56 1010.6
20260509000027 51 289 0.0 0.0 0.00 0.05 0.05 55 1010.5
20260508235525 52 285 0.0 0.0 0.00 0.05 0.05 54 1010.3
20260508235021 53 340 0.0 1.0 0.00 0.05 0.05 49 1010.5
20260508234519 53 327 1.0 1.0 0.00 0.05 0.05 49 1010.5
20260508234015 53 41 2.0 2.0 0.00 0.05 0.05 49 1010.2
20260508233515 54 14 1.0 1.0 0.00 0.05 0.05 48 1010.4
20260508233012 54 329 1.0 1.0 0.00 0.05 0.05 47 1010.1
20260508232509 54 299 0.0 1.0 0.00 0.05 0.05 48 1010.2
20260508232005 55 342 1.0 1.0 0.00 0.05 0.05 47 1010.3
20260508231503 55 283 0.0 0.0 0.00 0.05 0.05 45 1010.2
20260508231000 56 27 2.0 2.0 0.00 0.05 0.05 44 1010.2
20260508230456 56 279 0.0 1.0 0.00 0.05 0.05 44 1010.2
20260508225953 55 266 1.0 1.0 0.00 0.05 0.05 45 1010.1
20260508225450 55 302 2.0 3.0 0.00 0.05 0.05 46 1010.0
20260508224947 55 310 4.0 5.0 0.00 0.05 0.05 44 1009.8
20260508224445 56 286 2.0 2.0 0.00 0.05 0.05 45 1010.1